Location: Unspecified
(0.0000°N, 0.0000°E)
Time: 23:07:44
(UTC+00:00)

Hubble Space Telescope - Visible Passes

Search period start: 01 October 2022 00:00
Search period end: 11 October 2022 00:00
Orbit: 531 x 535 km, 28.5° (Epoch: 01 October)

Date Brightness Start Highest point End Pass type
(mag) Time Alt. Az. Time Alt. Az. Time Alt. Az.
07 Oct 2.8 19:26:43 10° NNW 19:28:10 18° NNW 19:28:10 18° NNW visible
08 Oct 1.7 19:14:10 10° NW 19:17:07 34° N 19:17:07 34° N visible
09 Oct 0.8 19:01:43 10° NW 19:05:44 56° NNE 19:06:09 53° ENE visible
10 Oct 3.6 05:16:56 10° S 05:18:27 12° SSE 05:19:58 10° SE visible
10 Oct 0.6 18:49:21 10° WNW 18:53:26 80° NNE 18:55:16 31° ESE visible
